Location: Brachbach
(49.1847°N, 9.7240°E)
Time: 21:59:56
(UTC+00:00)

Cosmos 1908 Rocket - Pass Details

Date: 23 May 2024
Orbit: 602 x 628 km, 82.5° (Epoch: 14 June)

Event Time Altitude Azimuth Distance (km) Brightness Sun altitude
Rises 00:13:19 0° 354° (N) 2,923 8.3 -19.1°
Reaches altitude 10° 00:15:38 10° 0° (N) 2,008 7.3 -19.0°
Maximum altitude 00:19:56 48° 75° (ENE) 821 4.3 -18.8°
Enters shadow 00:22:24 23° 140° (SE) 1,327 4.9 -18.7°
